Time,TemperatureF,DewpointF,PressureIn,WindDirection,WindDirectionDegrees,WindSpeedMPH,WindSpeedGustMPH,Humidity,HourlyPrecipIn,Conditions,Clouds,dailyrainin,SoftwareType,DateUTC
2013-03-13 00:00:00,41.1,29.5,29.58,NW,315,2.4,7.1,63,0.00,,,0.77,WUHU216HW,2013-03-13 04:00:00,
2013-03-13 00:01:00,41.1,29.5,29.58,NW,315,0.0,7.1,63,0.00,,,0.77,WUHU216HW,2013-03-13 04:01:00,
2013-03-13 00:06:00,41.0,29.3,29.58,NW,315,3.1,7.1,63,0.00,,,0.00,WUHU216HW,2013-03-13 04:06:00,
2013-03-13 00:11:00,41.0,28.9,29.59,WNW,293,6.4,6.4,62,0.00,,,0.00,WUHU216HW,2013-03-13 04:11:00,
2013-03-13 00:16:00,41.0,28.9,29.59,NW,315,7.1,7.1,62,0.00,,,0.00,WUHU216HW,2013-03-13 04:16:00,
2013-03-13 00:21:00,41.0,28.5,29.58,NW,315,7.3,8.2,61,0.00,,,0.00,WUHU216HW,2013-03-13 04:21:00,
2013-03-13 00:26:00,41.0,28.5,29.58,NW,315,4.0,8.2,61,0.00,,,0.00,WUHU216HW,2013-03-13 04:26:00,
2013-03-13 00:31:00,40.8,28.4,29.58,North,0,0.0,9.3,61,0.00,,,0.00,WUHU216HW,2013-03-13 04:31:00,
2013-03-13 00:36:00,40.8,28.4,29.58,WNW,293,3.3,11.6,61,0.00,,,0.00,WUHU216HW,2013-03-13 04:36:00,
2013-03-13 00:41:00,40.8,28.4,29.58,West,270,0.0,11.6,61,0.00,,,0.00,WUHU216HW,2013-03-13 04:41:00,
2013-03-13 00:47:00,40.8,28.4,29.58,WNW,293,0.0,0.0,61,0.00,,,0.00,WUHU216HW,2013-03-13 04:47:00,
2013-03-13 00:52:00,40.8,28.0,29.59,West,270,0.0,4.9,60,0.00,,,0.00,WUHU216HW,2013-03-13 04:52:00,
2013-03-13 00:57:00,40.8,28.0,29.59,West,270,0.0,4.9,60,0.00,,,0.00,WUHU216HW,2013-03-13 04:57:00,
2013-03-13 01:02:00,40.6,27.8,29.58,WNW,293,4.0,4.0,60,0.00,,,0.00,WUHU216HW,2013-03-13 05:02:00,
2013-03-13 01:07:00,40.6,27.8,29.58,WNW,293,0.0,4.0,60,0.00,,,0.00,WUHU216HW,2013-03-13 05:07:00,
2013-03-13 01:12:00,40.2,27.5,29.58,NW,315,0.0,0.0,60,0.00,,,0.00,WUHU216HW,2013-03-13 05:12:00,
2013-03-13 01:17:00,40.2,27.5,29.58,NW,315,2.6,2.6,60,0.00,,,0.00,WUHU216HW,2013-03-13 05:17:00,
2013-03-13 01:22:00,40.2,27.5,29.58,WSW,248,0.0,6.7,60,0.00,,,0.00,WUHU216HW,2013-03-13 05:22:00,
2013-03-13 01:27:00,40.2,27.5,29.58,WNW,293,0.0,6.7,60,0.00,,,0.00,WUHU216HW,2013-03-13 05:27:00,
2013-03-13 01:32:00,40.1,27.3,29.58,WNW,293,0.0,3.5,60,0.00,,,0.00,WUHU216HW,2013-03-13 05:32:00,
2013-03-13 01:37:00,39.9,26.6,29.58,NW,315,0.0,5.1,59,0.00,,,0.00,WUHU216HW,2013-03-13 05:37:00,
2013-03-13 01:42:00,39.9,26.6,29.58,NNW,338,0.0,5.1,59,0.00,,,0.00,WUHU216HW,2013-03-13 05:42:00,
2013-03-13 01:48:00,39.7,26.5,29.58,NW,315,2.6,3.1,59,0.00,,,0.00,WUHU216HW,2013-03-13 05:48:00,
2013-03-13 01:53:00,39.7,26.9,29.58,WNW,293,0.0,3.8,60,0.00,,,0.00,WUHU216HW,2013-03-13 05:53:00,
2013-03-13 01:58:00,39.5,26.7,29.58,WNW,293,2.6,7.6,60,0.00,,,0.00,WUHU216HW,2013-03-13 05:58:00,
2013-03-13 02:03:00,39.5,26.7,29.58,WNW,293,6.0,9.6,60,0.00,,,0.00,WUHU216HW,2013-03-13 06:03:00,
2013-03-13 02:08:00,39.3,26.6,29.57,WNW,293,0.0,8.2,60,0.00,,,0.00,WUHU216HW,2013-03-13 06:08:00,
2013-03-13 02:13:00,39.3,26.6,29.57,WNW,293,1.5,8.0,60,0.00,,,0.00,WUHU216HW,2013-03-13 06:13:00,
2013-03-13 02:18:00,39.0,26.2,29.57,WNW,293,2.6,2.9,60,0.00,,,0.00,WUHU216HW,2013-03-13 06:18:00,
2013-03-13 02:23:00,39.0,26.2,29.57,NW,315,0.0,6.2,60,0.00,,,0.00,WUHU216HW,2013-03-13 06:23:00,
2013-03-13 02:28:00,39.0,26.2,29.57,NW,315,4.6,6.2,60,0.00,,,0.00,WUHU216HW,2013-03-13 06:28:00,
2013-03-13 02:33:00,39.0,26.2,29.57,WNW,293,2.2,5.8,60,0.00,,,0.00,WUHU216HW,2013-03-13 06:33:00,
2013-03-13 02:38:00,39.0,26.2,29.57,WNW,293,1.3,6.9,60,0.00,,,0.00,WUHU216HW,2013-03-13 06:38:00,
2013-03-13 02:43:00,38.8,26.4,29.57,WNW,293,0.0,6.9,61,0.00,,,0.00,WUHU216HW,2013-03-13 06:43:00,
2013-03-13 02:49:00,38.8,26.4,29.57,NW,315,0.0,4.0,61,0.00,,,0.00,WUHU216HW,2013-03-13 06:49:00,
2013-03-13 02:54:00,38.4,26.1,29.57,WNW,293,0.0,4.0,61,0.00,,,0.00,WUHU216HW,2013-03-13 06:54:00,
2013-03-13 02:59:00,38.4,26.1,29.56,WNW,293,0.0,0.0,61,0.00,,,0.00,WUHU216HW,2013-03-13 06:59:00,
2013-03-13 03:04:00,38.1,25.8,29.56,WNW,293,0.0,0.0,61,0.00,,,0.00,WUHU216HW,2013-03-13 07:04:00,
2013-03-13 03:09:00,37.9,26.0,29.56,WNW,293,0.0,0.0,62,0.00,,,0.00,WUHU216HW,2013-03-13 07:09:00,
2013-03-13 03:14:00,37.5,25.7,29.56,WNW,293,0.0,0.0,62,0.00,,,0.00,WUHU216HW,2013-03-13 07:14:00,
2013-03-13 03:19:00,37.4,25.5,29.56,WNW,293,0.0,0.0,62,0.00,,,0.00,WUHU216HW,2013-03-13 07:19:00,
2013-03-13 03:24:00,37.0,25.2,29.56,WNW,293,0.0,0.0,62,0.00,,,0.00,WUHU216HW,2013-03-13 07:24:00,
2013-03-13 03:29:00,36.6,24.8,29.56,WNW,293,0.0,0.0,63,0.00,,,0.00,WUHU216HW,2013-03-13 07:29:00,
2013-03-13 03:34:00,36.5,25.0,29.56,WNW,293,0.0,0.0,63,0.00,,,0.00,WUHU216HW,2013-03-13 07:34:00,
2013-03-13 03:39:00,36.3,25.2,29.55,NW,315,0.0,0.0,64,0.00,,,0.00,WUHU216HW,2013-03-13 07:39:00,
2013-03-13 03:44:00,36.3,25.2,29.55,NW,315,0.0,2.0,64,0.00,,,0.00,WUHU216HW,2013-03-13 07:44:00,
2013-03-13 03:49:00,36.3,25.2,29.55,NW,315,0.0,2.0,64,0.00,,,0.00,WUHU216HW,2013-03-13 07:49:00,
2013-03-13 03:54:00,36.3,25.2,29.55,WNW,293,0.0,1.5,64,0.00,,,0.00,WUHU216HW,2013-03-13 07:54:00,
2013-03-13 03:59:00,36.3,25.2,29.55,NW,315,0.0,1.5,64,0.00,,,0.00,WUHU216HW,2013-03-13 07:59:00,
2013-03-13 04:05:00,36.3,25.2,29.55,NW,315,0.0,0.0,64,0.00,,,0.00,WUHU216HW,2013-03-13 08:05:00,
2013-03-13 04:10:00,36.3,25.2,29.55,NW,315,0.0,0.0,64,0.00,,,0.00,WUHU216HW,2013-03-13 08:10:00,
2013-03-13 04:15:00,36.3,24.9,29.55,NW,315,0.0,0.0,63,0.00,,,0.00,WUHU216HW,2013-03-13 08:15:00,
2013-03-13 04:20:00,36.3,25.2,29.55,NW,315,0.0,0.0,64,0.00,,,0.00,WUHU216HW,2013-03-13 08:20:00,
2013-03-13 04:25:00,36.1,25.1,29.55,NW,315,0.0,0.0,64,0.00,,,0.00,WUHU216HW,2013-03-13 08:25:00,
2013-03-13 04:30:00,35.9,24.9,29.55,NW,315,0.0,0.0,64,0.00,,,0.00,WUHU216HW,2013-03-13 08:30:00,
2013-03-13 04:35:00,35.7,24.7,29.54,NW,315,0.0,0.0,64,0.00,,,0.00,WUHU216HW,2013-03-13 08:35:00,
2013-03-13 04:40:00,35.4,24.4,29.54,NW,315,0.0,0.0,64,0.00,,,0.00,WUHU216HW,2013-03-13 08:40:00,
2013-03-13 04:45:00,34.8,23.9,29.53,NW,315,0.0,0.0,64,0.00,,,0.00,WUHU216HW,2013-03-13 08:45:00,
2013-03-13 04:50:00,34.7,24.0,29.54,NW,315,0.0,0.0,65,0.00,,,0.00,WUHU216HW,2013-03-13 08:50:00,
2013-03-13 04:55:00,34.3,24.0,29.54,NW,315,0.0,0.0,66,0.00,,,0.00,WUHU216HW,2013-03-13 08:55:00,
2013-03-13 05:00:00,33.9,23.7,29.53,NW,315,0.0,0.0,66,0.00,,,0.00,WUHU216HW,2013-03-13 09:00:00,
2013-03-13 05:05:00,33.6,23.7,29.53,NW,315,0.0,0.0,67,0.00,,,0.00,WUHU216HW,2013-03-13 09:05:00,
2013-03-13 05:10:00,33.2,23.7,29.54,NW,315,0.0,0.0,68,0.00,,,0.00,WUHU216HW,2013-03-13 09:10:00,
2013-03-13 05:15:00,32.9,23.8,29.54,NW,315,0.0,0.0,69,0.00,,,0.00,WUHU216HW,2013-03-13 09:15:00,
2013-03-13 05:20:00,32.7,23.6,29.54,NW,315,0.0,0.0,69,0.00,,,0.00,WUHU216HW,2013-03-13 09:20:00,
2013-03-13 05:25:00,32.3,23.6,29.53,NW,315,0.0,0.0,70,0.00,,,0.00,WUHU216HW,2013-03-13 09:25:00,
2013-03-13 05:31:00,32.1,23.5,29.54,NW,315,0.0,0.0,70,0.00,,,0.00,WUHU216HW,2013-03-13 09:31:00,
2013-03-13 05:36:00,31.8,23.5,29.54,NW,315,0.0,0.0,71,0.00,,,0.00,WUHU216HW,2013-03-13 09:36:00,
2013-03-13 05:41:00,31.8,23.5,29.54,NW,315,0.0,0.0,71,0.00,,,0.00,WUHU216HW,2013-03-13 09:41:00,
2013-03-13 05:46:00,31.6,23.6,29.54,NW,315,0.0,0.0,72,0.00,,,0.00,WUHU216HW,2013-03-13 09:46:00,
2013-03-13 05:51:00,31.4,23.6,29.54,NW,315,0.0,0.0,72,0.00,,,0.00,WUHU216HW,2013-03-13 09:51:00,
2013-03-13 05:56:00,31.2,23.2,29.54,NW,315,0.0,0.0,72,0.00,,,0.00,WUHU216HW,2013-03-13 09:56:00,
2013-03-13 06:01:00,31.1,23.4,29.55,NW,315,0.0,0.0,73,0.00,,,0.00,WUHU216HW,2013-03-13 10:01:00,
2013-03-13 06:06:00,30.9,23.2,29.55,NW,315,0.0,0.0,73,0.00,,,0.00,WUHU216HW,2013-03-13 10:06:00,
2013-03-13 06:11:00,30.7,23.3,29.55,NW,315,0.0,0.0,74,0.00,,,0.00,WUHU216HW,2013-03-13 10:11:00,
2013-03-13 06:16:00,30.7,23.7,29.55,NW,315,0.0,0.0,75,0.00,,,0.00,WUHU216HW,2013-03-13 10:16:00,
2013-03-13 06:21:00,30.7,23.7,29.55,NW,315,0.0,0.0,75,0.00,,,0.00,WUHU216HW,2013-03-13 10:21:00,
2013-03-13 06:26:00,30.7,23.7,29.55,NW,315,0.0,0.0,75,0.00,,,0.00,WUHU216HW,2013-03-13 10:26:00,
2013-03-13 06:31:00,30.5,23.5,29.56,West,270,0.0,0.0,75,0.00,,,0.00,WUHU216HW,2013-03-13 10:31:00,
2013-03-13 06:37:00,30.5,23.5,29.56,WSW,248,0.0,0.0,75,0.00,,,0.00,WUHU216HW,2013-03-13 10:37:00,
2013-03-13 06:42:00,30.5,23.8,29.56,WSW,248,0.0,0.0,76,0.00,,,0.00,WUHU216HW,2013-03-13 10:42:00,
2013-03-13 06:47:00,30.5,23.8,29.56,WSW,248,0.0,0.0,76,0.00,,,0.00,WUHU216HW,2013-03-13 10:47:00,
2013-03-13 06:52:00,30.3,23.6,29.56,West,270,0.0,0.0,76,0.00,,,0.00,WUHU216HW,2013-03-13 10:52:00,
2013-03-13 06:57:00,30.3,23.8,29.56,West,270,0.0,0.0,77,0.00,,,0.00,WUHU216HW,2013-03-13 10:57:00,
2013-03-13 07:02:00,30.0,23.6,29.56,West,270,0.0,0.0,77,0.00,,,0.00,WUHU216HW,2013-03-13 11:02:00,
2013-03-13 07:07:00,30.0,23.6,29.56,West,270,0.0,0.0,77,0.00,,,0.00,WUHU216HW,2013-03-13 11:07:00,
2013-03-13 07:12:00,30.0,23.6,29.56,West,270,0.0,0.0,77,0.00,,,0.00,WUHU216HW,2013-03-13 11:12:00,
2013-03-13 07:17:00,29.8,23.4,29.57,West,270,0.0,0.0,77,0.00,,,0.00,WUHU216HW,2013-03-13 11:17:00,
2013-03-13 07:22:00,30.0,23.6,29.56,West,270,0.0,0.0,77,0.00,,,0.00,WUHU216HW,2013-03-13 11:22:00,
2013-03-13 07:27:00,30.0,23.9,29.56,West,270,0.0,0.0,78,0.00,,,0.00,WUHU216HW,2013-03-13 11:27:00,
2013-03-13 07:33:00,30.0,23.9,29.56,West,270,0.0,0.0,78,0.00,,,0.00,WUHU216HW,2013-03-13 11:33:00,
2013-03-13 07:38:00,30.0,23.9,29.57,West,270,0.0,0.0,78,0.00,,,0.00,WUHU216HW,2013-03-13 11:38:00,
2013-03-13 07:43:00,30.2,24.1,29.56,West,270,0.0,0.0,78,0.00,,,0.00,WUHU216HW,2013-03-13 11:43:00,
2013-03-13 07:48:00,30.3,24.3,29.56,West,270,0.0,0.0,78,0.00,,,0.00,WUHU216HW,2013-03-13 11:48:00,
2013-03-13 07:53:00,30.5,24.5,29.56,West,270,0.0,0.0,78,0.00,,,0.00,WUHU216HW,2013-03-13 11:53:00,
2013-03-13 07:58:00,30.7,24.6,29.56,West,270,0.0,0.0,78,0.00,,,0.00,WUHU216HW,2013-03-13 11:58:00,
2013-03-13 08:03:00,30.9,24.8,29.56,West,270,0.0,0.0,78,0.00,,,0.00,WUHU216HW,2013-03-13 12:03:00,
2013-03-13 08:08:00,31.1,25.0,29.56,WSW,248,0.0,0.0,78,0.00,,,0.00,WUHU216HW,2013-03-13 12:08:00,
2013-03-13 08:13:00,31.2,25.2,29.56,West,270,0.0,0.0,78,0.00,,,0.00,WUHU216HW,2013-03-13 12:13:00,
2013-03-13 08:18:00,31.8,26.0,29.57,West,270,0.0,0.0,79,0.00,,,0.00,WUHU216HW,2013-03-13 12:18:00,
2013-03-13 08:23:00,32.1,26.1,29.56,West,270,0.0,0.0,78,0.00,,,0.00,WUHU216HW,2013-03-13 12:23:00,
2013-03-13 08:28:00,32.3,26.2,29.56,West,270,0.0,0.0,78,0.00,,,0.00,WUHU216HW,2013-03-13 12:28:00,
2013-03-13 08:34:00,32.7,26.6,29.56,WNW,293,0.0,0.0,78,0.00,,,0.00,WUHU216HW,2013-03-13 12:34:00,
2013-03-13 08:39:00,33.0,26.9,29.56,WNW,293,0.0,0.0,78,0.00,,,0.00,WUHU216HW,2013-03-13 12:39:00,
2013-03-13 08:44:00,33.4,26.9,29.56,WNW,293,0.0,0.0,77,0.00,,,0.00,WUHU216HW,2013-03-13 12:44:00,
2013-03-13 08:49:00,33.6,27.0,29.56,WNW,293,0.0,0.0,77,0.00,,,0.00,WUHU216HW,2013-03-13 12:49:00,
2013-03-13 08:54:00,33.9,27.4,29.56,WNW,293,0.0,0.0,77,0.00,,,0.00,WUHU216HW,2013-03-13 12:54:00,
2013-03-13 08:59:00,34.3,27.7,29.57,South,180,0.0,0.0,77,0.00,,,0.00,WUHU216HW,2013-03-13 12:59:00,
2013-03-13 09:04:00,35.2,28.3,29.57,SSE,158,0.0,0.0,76,0.00,,,0.00,WUHU216HW,2013-03-13 13:04:00,
2013-03-13 09:09:00,35.9,28.7,29.57,South,180,0.0,0.0,75,0.00,,,0.00,WUHU216HW,2013-03-13 13:09:00,
2013-03-13 09:14:00,36.5,28.9,29.57,South,180,0.0,0.0,74,0.00,,,0.00,WUHU216HW,2013-03-13 13:14:00,
2013-03-13 09:19:00,37.2,29.3,29.57,SW,225,0.0,1.7,73,0.00,,,0.00,WUHU216HW,2013-03-13 13:19:00,
2013-03-13 09:24:00,38.3,30.0,29.57,SW,225,0.0,2.6,72,0.00,,,0.00,WUHU216HW,2013-03-13 13:24:00,
2013-03-13 09:29:00,39.7,31.0,29.56,West,270,3.8,3.8,71,0.00,,,0.00,WUHU216HW,2013-03-13 13:29:00,
2013-03-13 09:34:00,41.0,31.6,29.56,SW,225,0.0,3.8,69,0.00,,,0.00,WUHU216HW,2013-03-13 13:34:00,
2013-03-13 09:39:00,42.0,32.2,29.56,SSW,203,0.0,1.5,67,0.00,,,0.00,WUHU216HW,2013-03-13 13:39:00,
2013-03-13 09:45:00,43.1,32.1,29.56,SSE,158,2.4,2.6,65,0.00,,,0.00,WUHU216HW,2013-03-13 13:45:00,
2013-03-13 09:50:00,44.2,32.4,29.55,SW,225,2.0,3.3,63,0.00,,,0.00,WUHU216HW,2013-03-13 13:50:00,
2013-03-13 09:55:00,44.9,32.7,29.56,SW,225,0.0,6.2,62,0.00,,,0.00,WUHU216HW,2013-03-13 13:55:00,
2013-03-13 10:00:00,45.6,32.9,29.56,SW,225,4.6,6.2,61,0.00,,,0.00,WUHU216HW,2013-03-13 14:00:00,
2013-03-13 10:05:00,46.5,33.4,29.56,WSW,248,0.0,5.5,60,0.00,,,0.00,WUHU216HW,2013-03-13 14:05:00,
2013-03-13 10:10:00,47.3,33.6,29.56,East,90,0.0,5.3,59,0.00,,,0.00,WUHU216HW,2013-03-13 14:10:00,
2013-03-13 10:15:00,48.0,33.4,29.55,SSE,158,7.8,7.8,57,0.00,,,0.00,WUHU216HW,2013-03-13 14:15:00,
2013-03-13 10:20:00,48.7,33.6,29.55,SSW,203,2.0,7.8,56,0.00,,,0.00,WUHU216HW,2013-03-13 14:20:00,
2013-03-13 10:25:00,49.1,34.0,29.55,WSW,248,1.3,2.0,56,0.00,,,0.00,WUHU216HW,2013-03-13 14:25:00,
2013-03-13 10:30:00,49.8,33.8,29.55,WSW,248,0.0,4.4,54,0.00,,,0.00,WUHU216HW,2013-03-13 14:30:00,
2013-03-13 10:35:00,49.4,32.9,29.55,SW,225,0.0,8.2,53,0.00,,,0.00,WUHU216HW,2013-03-13 14:35:00,
2013-03-13 10:40:00,48.3,31.4,29.55,SSW,203,5.5,8.2,52,0.00,,,0.00,WUHU216HW,2013-03-13 14:40:00,
2013-03-13 10:45:00,47.8,31.9,29.54,West,270,0.0,6.7,54,0.00,,,0.00,WUHU216HW,2013-03-13 14:45:00,
2013-03-13 10:50:00,47.3,30.9,29.55,WSW,248,4.6,12.5,53,0.00,,,0.00,WUHU216HW,2013-03-13 14:50:00,
2013-03-13 10:55:00,46.5,29.9,29.55,SSW,203,0.0,12.5,53,0.00,,,0.00,WUHU216HW,2013-03-13 14:55:00,
2013-03-13 11:00:00,45.6,30.2,29.55,West,270,0.8,6.2,55,0.00,,,0.00,WUHU216HW,2013-03-13 15:00:00,
2013-03-13 11:05:00,44.9,29.2,29.55,WSW,248,0.0,9.6,54,0.00,,,0.00,WUHU216HW,2013-03-13 15:05:00,
2013-03-13 11:11:00,44.7,29.5,29.54,WSW,248,11.8,11.8,55,0.00,,,0.00,WUHU216HW,2013-03-13 15:11:00,
2013-03-13 11:16:00,44.6,28.9,29.54,SSW,203,9.1,11.8,54,0.00,,,0.00,WUHU216HW,2013-03-13 15:16:00,
2013-03-13 11:21:00,44.7,29.5,29.54,West,270,0.0,9.1,55,0.00,,,0.00,WUHU216HW,2013-03-13 15:21:00,
2013-03-13 11:26:00,44.9,29.7,29.54,NW,315,1.5,6.2,55,0.00,,,0.00,WUHU216HW,2013-03-13 15:26:00,
2013-03-13 11:31:00,44.9,29.2,29.54,WNW,293,0.0,8.2,54,0.00,,,0.00,WUHU216HW,2013-03-13 15:31:00,
2013-03-13 11:36:00,44.7,29.5,29.54,WNW,293,2.6,10.5,55,0.00,,,0.00,WUHU216HW,2013-03-13 15:36:00,
2013-03-13 11:42:00,44.4,29.2,29.55,SSW,203,6.2,10.5,55,0.00,,,0.00,WUHU216HW,2013-03-13 15:42:00,
2013-03-13 11:47:00,44.0,27.9,29.54,West,270,2.6,15.2,53,0.00,,,0.00,WUHU216HW,2013-03-13 15:47:00,
2013-03-13 11:52:00,43.8,27.8,29.54,WNW,293,2.0,15.2,53,0.00,,,0.00,WUHU216HW,2013-03-13 15:52:00,
2013-03-13 11:57:00,43.8,27.3,29.55,WSW,248,16.3,16.3,52,0.00,,,0.00,WUHU216HW,2013-03-13 15:57:00,
2013-03-13 12:02:00,44.4,27.8,29.54,WSW,248,0.0,16.3,52,0.00,,,0.00,WUHU216HW,2013-03-13 16:02:00,
2013-03-13 12:07:00,45.1,27.6,29.55,WSW,248,8.2,11.4,50,0.00,,,0.00,WUHU216HW,2013-03-13 16:07:00,
2013-03-13 12:12:00,46.0,27.7,29.54,WSW,248,4.6,11.4,49,0.00,,,0.00,WUHU216HW,2013-03-13 16:12:00,
2013-03-13 12:18:00,46.9,28.1,29.54,West,270,0.0,8.2,48,0.00,,,0.00,WUHU216HW,2013-03-13 16:18:00,
2013-03-13 12:23:00,48.0,28.0,29.54,West,270,0.6,11.6,46,0.00,,,0.00,WUHU216HW,2013-03-13 16:23:00,
2013-03-13 12:28:00,48.7,28.1,29.53,SW,225,1.7,11.6,45,0.00,,,0.00,WUHU216HW,2013-03-13 16:28:00,
2013-03-13 12:33:00,49.1,27.9,29.53,WSW,248,7.1,9.1,44,0.00,,,0.00,WUHU216HW,2013-03-13 16:33:00,
2013-03-13 12:38:00,49.8,28.6,29.53,SW,225,4.2,8.7,44,0.00,,,0.00,WUHU216HW,2013-03-13 16:38:00,
2013-03-13 12:43:00,50.7,28.9,29.53,SSW,203,2.2,13.1,43,0.00,,,0.00,WUHU216HW,2013-03-13 16:43:00,
2013-03-13 12:48:00,51.8,29.3,29.53,West,270,4.6,13.1,42,0.00,,,0.00,WUHU216HW,2013-03-13 16:48:00,
2013-03-13 12:53:00,51.8,28.6,29.53,West,270,6.4,7.1,41,0.00,,,0.00,WUHU216HW,2013-03-13 16:53:00,
2013-03-13 12:58:00,50.5,25.7,29.53,NW,315,0.0,9.1,38,0.00,,,0.00,WUHU216HW,2013-03-13 16:58:00,
2013-03-13 13:03:00,48.9,24.2,29.53,NW,315,4.2,11.1,38,0.00,,,0.00,WUHU216HW,2013-03-13 17:03:00,
2013-03-13 13:08:00,48.0,24.1,29.53,NNE,23,7.8,11.1,39,0.00,,,0.00,WUHU216HW,2013-03-13 17:08:00,
2013-03-13 13:13:00,47.4,24.8,29.54,SW,225,10.0,10.0,41,0.00,,,0.00,WUHU216HW,2013-03-13 17:13:00,
2013-03-13 13:18:00,47.1,24.5,29.54,WSW,248,7.6,12.0,41,0.00,,,0.00,WUHU216HW,2013-03-13 17:18:00,
2013-03-13 13:23:00,46.9,23.8,29.53,WNW,293,10.5,12.0,40,0.00,,,0.00,WUHU216HW,2013-03-13 17:23:00,
2013-03-13 13:28:00,47.1,24.5,29.53,West,270,0.0,10.5,41,0.00,,,0.00,WUHU216HW,2013-03-13 17:28:00,
2013-03-13 13:33:00,47.6,26.1,29.53,West,270,0.0,10.5,43,0.00,,,0.00,WUHU216HW,2013-03-13 17:33:00,
2013-03-13 13:38:00,49.8,26.4,29.52,South,180,8.9,10.7,40,0.00,,,0.00,WUHU216HW,2013-03-13 17:38:00,
2013-03-13 13:43:00,50.5,25.0,29.52,West,270,1.3,10.7,37,0.00,,,0.00,WUHU216HW,2013-03-13 17:43:00,
2013-03-13 13:49:00,50.1,24.0,29.52,WNW,293,12.0,12.0,36,0.00,,,0.00,WUHU216HW,2013-03-13 17:49:00,
2013-03-13 13:54:00,49.1,23.7,29.52,WNW,293,0.0,12.0,37,0.00,,,0.00,WUHU216HW,2013-03-13 17:54:00,
2013-03-13 13:59:00,48.2,23.6,29.52,West,270,8.5,8.5,38,0.00,,,0.00,WUHU216HW,2013-03-13 17:59:00,
2013-03-13 14:04:00,47.6,23.0,29.53,WNW,293,5.3,8.5,38,0.00,,,0.00,WUHU216HW,2013-03-13 18:04:00,
2013-03-13 14:09:00,47.1,23.3,29.52,West,270,4.9,10.0,39,0.00,,,0.00,WUHU216HW,2013-03-13 18:09:00,
2013-03-13 14:14:00,47.4,23.6,29.52,West,270,0.0,15.8,39,0.00,,,0.00,WUHU216HW,2013-03-13 18:14:00,
2013-03-13 14:19:00,47.4,23.0,29.52,West,270,6.4,15.8,38,0.00,,,0.00,WUHU216HW,2013-03-13 18:19:00,
2013-03-13 14:24:00,47.3,22.8,29.52,West,270,9.3,14.7,38,0.00,,,0.00,WUHU216HW,2013-03-13 18:24:00,
2013-03-13 14:29:00,46.9,22.5,29.52,WSW,248,0.0,12.9,38,0.00,,,0.00,WUHU216HW,2013-03-13 18:29:00,
2013-03-13 14:34:00,46.9,22.5,29.52,WSW,248,7.3,8.7,38,0.00,,,0.00,WUHU216HW,2013-03-13 18:34:00,
2013-03-13 14:40:00,46.9,23.1,29.52,WNW,293,4.0,8.7,39,0.00,,,0.00,WUHU216HW,2013-03-13 18:40:00,
2013-03-13 14:45:00,47.3,23.5,29.52,WSW,248,1.5,7.3,39,0.00,,,0.00,WUHU216HW,2013-03-13 18:45:00,
2013-03-13 14:50:00,47.4,23.6,29.52,SW,225,8.7,8.7,39,0.00,,,0.00,WUHU216HW,2013-03-13 18:50:00,
2013-03-13 14:55:00,48.2,24.3,29.52,SW,225,5.5,8.7,39,0.00,,,0.00,WUHU216HW,2013-03-13 18:55:00,
2013-03-13 15:00:00,49.1,25.1,29.52,SW,225,0.0,6.9,39,0.00,,,0.00,WUHU216HW,2013-03-13 19:00:00,
2013-03-13 15:05:00,49.8,24.3,29.51,WSW,248,8.5,10.9,37,0.00,,,0.00,WUHU216HW,2013-03-13 19:05:00,
2013-03-13 15:10:00,49.8,24.3,29.51,SSW,203,8.0,11.1,37,0.00,,,0.00,WUHU216HW,2013-03-13 19:10:00,
2013-03-13 15:15:00,50.3,25.5,29.51,WSW,248,0.0,11.1,38,0.00,,,0.00,WUHU216HW,2013-03-13 19:15:00,
2013-03-13 15:20:00,50.7,25.8,29.51,West,270,0.0,7.3,38,0.00,,,0.00,WUHU216HW,2013-03-13 19:20:00,
2013-03-13 15:25:00,50.9,25.3,29.51,WSW,248,0.0,8.9,37,0.00,,,0.00,WUHU216HW,2013-03-13 19:25:00,
2013-03-13 15:30:00,51.6,25.3,29.51,SSW,203,20.3,20.3,36,0.00,,,0.00,WUHU216HW,2013-03-13 19:30:00,
2013-03-13 15:35:00,52.1,25.1,29.51,SSW,203,4.0,20.3,35,0.00,,,0.00,WUHU216HW,2013-03-13 19:35:00,
2013-03-13 15:40:00,52.7,26.2,29.51,South,180,0.0,5.8,36,0.00,,,0.00,WUHU216HW,2013-03-13 19:40:00,
2013-03-13 15:45:00,52.8,25.0,29.51,West,270,6.0,9.8,34,0.00,,,0.00,WUHU216HW,2013-03-13 19:45:00,
2013-03-13 15:50:00,52.8,25.7,29.51,WSW,248,13.1,13.8,35,0.00,,,0.00,WUHU216HW,2013-03-13 19:50:00,
2013-03-13 15:56:00,52.7,24.9,29.51,SW,225,1.5,14.9,34,0.00,,,0.00,WUHU216HW,2013-03-13 19:56:00,
2013-03-13 16:01:00,52.3,25.2,29.51,West,270,3.3,14.9,35,0.00,,,0.00,WUHU216HW,2013-03-13 20:01:00,
2013-03-13 16:06:00,51.6,24.6,29.51,South,180,5.8,10.9,35,0.00,,,0.00,WUHU216HW,2013-03-13 20:06:00,
2013-03-13 16:11:00,49.8,24.3,29.52,West,270,0.0,10.9,37,0.00,,,0.00,WUHU216HW,2013-03-13 20:11:00,
2013-03-13 16:16:00,48.0,24.8,29.52,NW,315,6.4,10.0,40,0.00,,,0.00,WUHU216HW,2013-03-13 20:16:00,
2013-03-13 16:21:00,47.1,25.0,29.52,West,270,0.0,7.3,41,0.00,,,0.00,WUHU216HW,2013-03-13 20:21:00,
2013-03-13 16:26:00,46.9,25.4,29.53,West,270,0.0,1.5,43,0.00,,,0.00,WUHU216HW,2013-03-13 20:26:00,
2013-03-13 16:31:00,46.2,26.4,29.53,NW,315,11.4,11.4,46,0.00,,,0.00,WUHU216HW,2013-03-13 20:31:00,
2013-03-13 16:36:00,45.1,26.7,29.53,West,270,0.0,12.3,49,0.00,,,0.00,WUHU216HW,2013-03-13 20:36:00,
2013-03-13 16:41:00,44.9,26.9,29.53,WSW,248,7.8,12.3,49,0.00,,,0.00,WUHU216HW,2013-03-13 20:41:00,
2013-03-13 16:47:00,44.4,26.9,29.54,NW,315,3.8,8.0,50,0.00,,,0.00,WUHU216HW,2013-03-13 20:47:00,
2013-03-13 16:52:00,44.2,27.6,29.54,West,270,6.9,8.5,52,0.00,,,0.00,WUHU216HW,2013-03-13 20:52:00,
2013-03-13 16:57:00,43.7,27.6,29.55,WNW,293,3.1,16.3,54,0.00,,,0.00,WUHU216HW,2013-03-13 20:57:00,
2013-03-13 17:02:00,43.5,29.2,29.56,NW,315,9.6,16.3,57,0.00,,,0.00,WUHU216HW,2013-03-13 21:02:00,
2013-03-13 17:07:00,43.8,30.4,29.55,NW,315,0.0,14.3,59,0.00,,,0.00,WUHU216HW,2013-03-13 21:07:00,
2013-03-13 17:12:00,44.2,30.3,29.55,WNW,293,3.1,8.5,58,0.00,,,0.00,WUHU216HW,2013-03-13 21:12:00,
2013-03-13 17:17:00,45.3,30.9,29.55,WNW,293,7.1,8.5,57,0.00,,,0.00,WUHU216HW,2013-03-13 21:17:00,
2013-03-13 17:22:00,45.6,30.3,29.55,WSW,248,6.4,9.8,55,0.00,,,0.00,WUHU216HW,2013-03-13 21:22:00,
2013-03-13 17:27:00,45.5,29.7,29.55,West,270,9.1,9.8,54,0.00,,,0.00,WUHU216HW,2013-03-13 21:27:00,
2013-03-13 17:32:00,45.1,28.9,29.55,West,270,0.0,9.1,53,0.00,,,0.00,WUHU216HW,2013-03-13 21:32:00,
2013-03-13 17:37:00,44.7,28.6,29.55,South,180,0.0,7.3,53,0.00,,,0.00,WUHU216HW,2013-03-13 21:37:00,
2013-03-13 17:43:00,44.9,29.2,29.55,SW,225,7.1,7.8,54,0.00,,,0.00,WUHU216HW,2013-03-13 21:43:00,
2013-03-13 17:48:00,45.3,29.1,29.55,SSW,203,0.0,7.8,53,0.00,,,0.00,WUHU216HW,2013-03-13 21:48:00,
2013-03-13 17:53:00,46.0,29.3,29.55,WSW,248,0.0,11.1,52,0.00,,,0.00,WUHU216HW,2013-03-13 21:53:00,
2013-03-13 17:58:00,46.0,28.8,29.55,WSW,248,0.0,11.1,51,0.00,,,0.00,WUHU216HW,2013-03-13 21:58:00,
2013-03-13 18:03:00,45.3,27.7,29.55,WSW,248,0.0,4.0,50,0.00,,,0.00,WUHU216HW,2013-03-13 22:03:00,
2013-03-13 18:08:00,45.1,27.6,29.56,West,270,0.0,10.5,50,0.00,,,0.00,WUHU216HW,2013-03-13 22:08:00,
2013-03-13 18:13:00,44.4,27.4,29.56,West,270,0.0,10.5,51,0.00,,,0.00,WUHU216HW,2013-03-13 22:13:00,
2013-03-13 18:18:00,43.5,27.0,29.57,WNW,293,0.0,4.0,52,0.00,,,0.00,WUHU216HW,2013-03-13 22:18:00,
2013-03-13 18:23:00,42.6,26.6,29.58,WNW,293,0.0,17.2,53,0.00,,,0.00,WUHU216HW,2013-03-13 22:23:00,
2013-03-13 18:28:00,41.3,27.1,29.59,NW,315,4.0,17.2,57,0.00,,,0.00,WUHU216HW,2013-03-13 22:28:00,
2013-03-13 18:33:00,41.1,27.4,29.59,WNW,293,4.0,10.0,59,0.00,,,0.00,WUHU216HW,2013-03-13 22:33:00,
2013-03-13 18:38:00,40.8,27.1,29.59,West,270,0.0,8.5,58,0.00,,,0.00,WUHU216HW,2013-03-13 22:38:00,
2013-03-13 18:43:00,40.2,26.1,29.59,NW,315,12.5,12.5,57,0.00,,,0.00,WUHU216HW,2013-03-13 22:43:00,
2013-03-13 18:48:00,39.7,25.1,29.59,WNW,293,1.5,12.5,56,0.00,,,0.00,WUHU216HW,2013-03-13 22:48:00,
2013-03-13 18:54:00,39.3,24.4,29.59,WSW,248,0.8,10.5,55,0.00,,,0.00,WUHU216HW,2013-03-13 22:54:00,
2013-03-13 18:59:00,39.0,23.6,29.59,West,270,0.0,0.8,54,0.00,,,0.00,WUHU216HW,2013-03-13 22:59:00,
2013-03-13 19:04:00,39.0,23.6,29.59,West,270,5.5,5.5,54,0.00,,,0.00,WUHU216HW,2013-03-13 23:04:00,
2013-03-13 19:09:00,38.8,23.5,29.59,West,270,9.6,9.6,54,0.00,,,0.00,WUHU216HW,2013-03-13 23:09:00,
2013-03-13 19:14:00,38.4,23.1,29.59,WNW,293,7.3,9.6,54,0.00,,,0.00,WUHU216HW,2013-03-13 23:14:00,
2013-03-13 19:19:00,38.3,23.0,29.59,NW,315,6.9,13.1,54,0.00,,,0.00,WUHU216HW,2013-03-13 23:19:00,
2013-03-13 19:24:00,38.1,22.8,29.60,WNW,293,0.0,13.1,54,0.00,,,0.00,WUHU216HW,2013-03-13 23:24:00,
2013-03-13 19:29:00,37.9,23.1,29.61,NW,315,3.5,6.7,55,0.00,,,0.00,WUHU216HW,2013-03-13 23:29:00,
2013-03-13 19:34:00,37.7,22.9,29.61,WNW,293,8.9,8.9,55,0.00,,,0.00,WUHU216HW,2013-03-13 23:34:00,
2013-03-13 19:39:00,37.5,22.3,29.61,WNW,293,8.7,8.9,54,0.00,,,0.00,WUHU216HW,2013-03-13 23:39:00,
2013-03-13 19:44:00,37.4,22.2,29.61,NW,315,0.0,8.7,54,0.00,,,0.00,WUHU216HW,2013-03-13 23:44:00,
2013-03-13 19:50:00,37.2,21.6,29.62,WNW,293,0.0,10.9,54,0.00,,,0.00,WUHU216HW,2013-03-13 23:50:00,
2013-03-13 19:55:00,37.0,21.8,29.62,WSW,248,0.0,10.9,54,0.00,,,0.00,WUHU216HW,2013-03-13 23:55:00,
2013-03-13 20:00:00,36.6,21.1,29.62,West,270,6.0,8.5,53,0.00,,,0.00,WUHU216HW,2013-03-14 00:00:00,
2013-03-13 20:05:00,36.5,20.1,29.62,West,270,3.1,11.1,51,0.00,,,0.00,WUHU216HW,2013-03-14 00:05:00,
2013-03-13 20:10:00,36.3,19.9,29.62,SW,225,0.0,11.1,51,0.00,,,0.00,WUHU216HW,2013-03-14 00:10:00,
2013-03-13 20:15:00,36.3,19.9,29.62,West,270,0.0,11.8,51,0.00,,,0.00,WUHU216HW,2013-03-14 00:15:00,
2013-03-13 20:20:00,36.1,19.7,29.62,NW,315,0.0,11.8,51,0.00,,,0.00,WUHU216HW,2013-03-14 00:20:00,
2013-03-13 20:25:00,36.1,19.7,29.63,NW,315,7.1,7.1,51,0.00,,,0.00,WUHU216HW,2013-03-14 00:25:00,
2013-03-13 20:30:00,35.9,19.6,29.63,SSW,203,0.0,7.1,51,0.00,,,0.00,WUHU216HW,2013-03-14 00:30:00,
2013-03-13 20:35:00,35.9,19.6,29.63,NW,315,8.0,8.0,51,0.00,,,0.00,WUHU216HW,2013-03-14 00:35:00,
2013-03-13 20:40:00,35.7,19.8,29.64,NW,315,2.2,8.0,52,0.00,,,0.00,WUHU216HW,2013-03-14 00:40:00,
2013-03-13 20:45:00,35.7,19.4,29.63,NW,315,2.9,7.6,51,0.00,,,0.00,WUHU216HW,2013-03-14 00:45:00,
2013-03-13 20:50:00,35.7,19.8,29.63,WSW,248,0.0,12.5,52,0.00,,,0.00,WUHU216HW,2013-03-14 00:50:00,
2013-03-13 20:55:00,35.9,20.0,29.64,West,270,0.0,12.5,52,0.00,,,0.00,WUHU216HW,2013-03-14 00:55:00,
2013-03-13 21:00:00,35.9,20.0,29.63,WNW,293,0.0,1.1,52,0.00,,,0.00,WUHU216HW,2013-03-14 01:00:00,
2013-03-13 21:05:00,35.7,20.3,29.64,West,270,0.0,10.5,53,0.00,,,0.00,WUHU216HW,2013-03-14 01:05:00,
2013-03-13 21:10:00,35.4,19.9,29.64,SW,225,3.8,11.4,53,0.00,,,0.00,WUHU216HW,2013-03-14 01:10:00,
2013-03-13 21:16:00,35.4,20.4,29.64,WSW,248,0.0,11.4,54,0.00,,,0.00,WUHU216HW,2013-03-14 01:16:00,
2013-03-13 21:21:00,35.2,20.6,29.64,West,270,1.3,8.5,55,0.00,,,0.00,WUHU216HW,2013-03-14 01:21:00,
2013-03-13 21:26:00,34.8,20.7,29.64,West,270,1.7,8.5,56,0.00,,,0.00,WUHU216HW,2013-03-14 01:26:00,
2013-03-13 21:31:00,34.3,20.6,29.64,NNW,338,0.0,10.5,57,0.00,,,0.00,WUHU216HW,2013-03-14 01:31:00,
2013-03-13 21:36:00,34.3,21.4,29.64,WNW,293,2.9,10.5,59,0.00,,,0.00,WUHU216HW,2013-03-14 01:36:00,
2013-03-13 21:41:00,33.9,21.1,29.65,West,270,1.7,10.0,59,0.00,,,0.00,WUHU216HW,2013-03-14 01:41:00,
2013-03-13 21:47:00,33.6,20.7,29.65,West,270,0.0,10.2,59,0.00,,,0.00,WUHU216HW,2013-03-14 01:47:00,
2013-03-13 21:52:00,33.6,21.2,29.65,WSW,248,0.0,10.2,60,0.00,,,0.00,WUHU216HW,2013-03-14 01:52:00,
2013-03-13 21:57:00,33.4,21.4,29.65,WNW,293,0.0,5.3,61,0.00,,,0.00,WUHU216HW,2013-03-14 01:57:00,
2013-03-13 22:02:00,33.0,21.0,29.65,West,270,0.0,7.6,61,0.00,,,0.00,WUHU216HW,2013-03-14 02:02:00,
2013-03-13 22:07:00,33.0,21.2,29.66,West,270,0.0,7.6,62,0.00,,,0.00,WUHU216HW,2013-03-14 02:07:00,
2013-03-13 22:12:00,32.7,21.4,29.65,West,270,0.0,6.7,63,0.00,,,0.00,WUHU216HW,2013-03-14 02:12:00,
2013-03-13 22:17:00,32.7,21.4,29.65,West,270,0.0,6.7,63,0.00,,,0.00,WUHU216HW,2013-03-14 02:17:00,
2013-03-13 22:22:00,32.5,21.3,29.65,SW,225,3.1,6.2,63,0.00,,,0.00,WUHU216HW,2013-03-14 02:22:00,
2013-03-13 22:27:00,32.3,21.5,29.65,West,270,0.0,5.5,64,0.00,,,0.00,WUHU216HW,2013-03-14 02:27:00,
2013-03-13 22:32:00,32.3,21.8,29.66,WNW,293,6.0,11.8,65,0.00,,,0.00,WUHU216HW,2013-03-14 02:32:00,
2013-03-13 22:37:00,32.1,21.3,29.66,WNW,293,0.0,11.8,64,0.00,,,0.00,WUHU216HW,2013-03-14 02:37:00,
2013-03-13 22:42:00,32.1,21.3,29.66,WNW,293,0.0,10.0,64,0.00,,,0.00,WUHU216HW,2013-03-14 02:42:00,
2013-03-13 22:47:00,32.1,21.0,29.67,West,270,0.0,5.5,63,0.00,,,0.00,WUHU216HW,2013-03-14 02:47:00,
2013-03-13 22:52:00,32.1,21.0,29.66,WNW,293,3.3,5.5,63,0.00,,,0.00,WUHU216HW,2013-03-14 02:52:00,
2013-03-13 22:57:00,32.1,21.0,29.67,WNW,293,4.6,6.2,63,0.00,,,0.00,WUHU216HW,2013-03-14 02:57:00,
2013-03-13 23:02:00,32.1,21.0,29.66,WNW,293,6.7,6.7,63,0.00,,,0.00,WUHU216HW,2013-03-14 03:02:00,
2013-03-13 23:07:00,32.0,20.8,29.66,WNW,293,0.0,6.7,63,0.00,,,0.00,WUHU216HW,2013-03-14 03:07:00,
2013-03-13 23:12:00,32.1,20.6,29.66,West,270,4.2,6.4,62,0.00,,,0.00,WUHU216HW,2013-03-14 03:12:00,
2013-03-13 23:17:00,32.1,20.6,29.67,WNW,293,0.0,6.4,62,0.00,,,0.00,WUHU216HW,2013-03-14 03:17:00,
2013-03-13 23:22:00,32.1,20.6,29.67,WNW,293,0.8,2.9,62,0.00,,,0.00,WUHU216HW,2013-03-14 03:22:00,
2013-03-13 23:28:00,32.1,20.6,29.66,SW,225,0.0,2.9,62,0.00,,,0.00,WUHU216HW,2013-03-14 03:28:00,
2013-03-13 23:33:00,32.3,20.4,29.66,West,270,6.0,6.0,61,0.00,,,0.00,WUHU216HW,2013-03-14 03:33:00,
2013-03-13 23:38:00,32.3,20.4,29.66,WNW,293,0.0,6.0,61,0.00,,,0.00,WUHU216HW,2013-03-14 03:38:00,
2013-03-13 23:43:00,32.3,20.4,29.67,West,270,2.4,4.4,61,0.00,,,0.00,WUHU216HW,2013-03-14 03:43:00,
2013-03-13 23:48:00,32.5,20.0,29.66,WSW,248,0.0,4.6,60,0.00,,,0.00,WUHU216HW,2013-03-14 03:48:00,
2013-03-13 23:53:00,32.5,20.2,29.67,WNW,293,0.0,4.6,60,0.00,,,0.00,WUHU216HW,2013-03-14 03:53:00,
2013-03-13 23:58:00,32.5,20.2,29.66,WNW,293,0.0,0.0,60,0.00,,,0.00,WUHU216HW,2013-03-14 03:58:00,